TimeEDT,TemperatureF,Dew PointF,Humidity,Sea Level PressureIn,VisibilityMPH,Wind Direction,Wind SpeedMPH,Gust SpeedMPH,PrecipitationIn,Events,Conditions,WindDirDegrees,DateUTC
12:15 AM,49.8,24.8,38,30.10,10.0,SSE,5.8,-,N/A,,Clear,160,2012-03-12 04:15:00
12:34 AM,49.8,24.3,37,30.10,10.0,SSE,4.6,-,N/A,,Clear,160,2012-03-12 04:34:00
12:55 AM,48.4,24.8,40,30.10,10.0,SE,3.5,-,N/A,,Clear,140,2012-03-12 04:55:00
1:15 AM,48.4,23.9,38,30.09,10.0,SSE,4.6,-,N/A,,Clear,150,2012-03-12 05:15:00
1:34 AM,47.7,24.4,40,30.08,10.0,SE,4.6,-,N/A,,Clear,140,2012-03-12 05:34:00
1:55 AM,45.1,25.7,47,30.07,10.0,ESE,3.5,-,N/A,,Clear,120,2012-03-12 05:55:00
2:15 AM,44.1,25.7,49,30.07,10.0,SE,3.5,-,N/A,,Clear,140,2012-03-12 06:15:00
2:34 AM,44.8,25.3,47,30.06,10.0,SE,4.6,-,N/A,,Clear,130,2012-03-12 06:34:00
2:55 AM,44.6,24.8,46,30.07,10.0,SE,3.5,-,N/A,,Clear,140,2012-03-12 06:55:00
3:15 AM,44.2,25.5,48,30.06,10.0,Calm,Calm,-,N/A,,Clear,0,2012-03-12 07:15:00
3:34 AM,42.4,26.1,52,30.05,10.0,East,3.5,-,N/A,,Clear,100,2012-03-12 07:34:00
3:55 AM,42.1,26.2,53,30.04,10.0,ESE,3.5,-,N/A,,Clear,110,2012-03-12 07:55:00
4:15 AM,42.3,27.0,55,30.03,10.0,ESE,3.5,-,N/A,,Clear,110,2012-03-12 08:15:00
4:34 AM,44.1,27.5,52,30.03,10.0,ESE,3.5,-,N/A,,Clear,120,2012-03-12 08:34:00
4:55 AM,44.8,27.9,52,30.02,10.0,ESE,4.6,-,N/A,,Clear,120,2012-03-12 08:55:00
5:14 AM,44.6,28.0,52,30.02,10.0,ESE,4.6,-,N/A,,Clear,110,2012-03-12 09:14:00
5:55 AM,45.3,29.3,54,30.00,10.0,ESE,4.6,-,N/A,,Clear,110,2012-03-12 09:55:00
6:14 AM,43.2,29.5,59,30.00,10.0,ESE,6.9,-,N/A,,Clear,110,2012-03-12 10:14:00
6:35 AM,44.6,29.7,56,29.99,10.0,ESE,8.1,-,N/A,,Clear,110,2012-03-12 10:35:00
6:55 AM,44.6,29.8,56,29.98,10.0,ESE,6.9,-,N/A,,Clear,110,2012-03-12 10:55:00
7:14 AM,45.5,30.4,56,29.97,10.0,ESE,6.9,-,N/A,,Scattered Clouds,110,2012-03-12 11:14:00
7:35 AM,45.5,30.7,56,29.96,10.0,ESE,5.8,-,N/A,,Mostly Cloudy,110,2012-03-12 11:35:00
7:55 AM,45.0,31.5,59,29.95,10.0,East,6.9,-,N/A,,Mostly Cloudy,100,2012-03-12 11:55:00
8:14 AM,45.5,32.0,59,29.95,10.0,SE,5.8,-,N/A,,Overcast,130,2012-03-12 12:14:00
8:35 AM,46.9,35.2,64,29.95,10.0,SE,6.9,-,N/A,Rain,Light Rain,140,2012-03-12 12:35:00
8:55 AM,46.6,37.6,71,29.94,10.0,SSE,5.8,-,N/A,Rain,Light Rain,150,2012-03-12 12:55:00
9:14 AM,45.7,39.6,79,29.94,5.0,SE,8.1,-,N/A,Rain,Rain,140,2012-03-12 13:14:00
9:35 AM,44.8,41.5,88,29.94,7.0,SE,8.1,-,N/A,Rain,Light Rain,130,2012-03-12 13:35:00
9:55 AM,44.8,42.1,90,29.93,10.0,ESE,9.2,-,N/A,Rain,Light Rain,120,2012-03-12 13:55:00
10:14 AM,44.6,41.9,90,29.92,7.0,ESE,9.2,-,N/A,Rain,Light Rain,120,2012-03-12 14:14:00
10:35 AM,44.6,42.8,93,29.92,10.0,SE,10.4,-,N/A,Rain,Light Rain,130,2012-03-12 14:35:00
10:55 AM,44.8,43.3,95,29.91,4.0,SE,8.1,-,N/A,Rain,Rain,130,2012-03-12 14:55:00
11:15 AM,45.3,43.9,95,29.89,3.0,ESE,8.1,-,N/A,Rain,Light Rain,110,2012-03-12 15:15:00
11:35 AM,45.5,44.6,97,29.89,7.0,SE,8.1,-,N/A,,Overcast,130,2012-03-12 15:35:00
11:54 AM,45.7,44.6,96,29.89,4.0,SE,8.1,-,N/A,Rain,Light Rain,130,2012-03-12 15:54:00
12:15 PM,46.4,45.3,96,29.88,7.0,SE,8.1,-,N/A,,Overcast,130,2012-03-12 16:15:00
12:35 PM,46.8,45.7,96,29.87,10.0,SE,6.9,-,N/A,,Overcast,140,2012-03-12 16:35:00
12:54 PM,47.7,46.6,96,29.85,7.0,SE,9.2,-,N/A,Rain,Light Rain,130,2012-03-12 16:54:00
1:15 PM,48.4,47.3,96,29.84,10.0,SE,9.2,-,N/A,,Overcast,140,2012-03-12 17:15:00
1:35 PM,49.5,48.0,95,29.83,10.0,SE,9.2,-,N/A,,Overcast,130,2012-03-12 17:35:00
1:54 PM,49.6,47.7,93,29.82,10.0,SSE,11.5,-,N/A,,Overcast,150,2012-03-12 17:54:00
2:15 PM,49.3,47.5,94,29.81,10.0,SE,8.1,-,N/A,,Overcast,140,2012-03-12 18:15:00
2:34 PM,49.3,47.5,94,29.80,10.0,SE,6.9,-,N/A,,Overcast,140,2012-03-12 18:34:00
2:55 PM,49.8,48.2,94,29.78,10.0,SSE,8.1,-,N/A,Rain,Light Rain,150,2012-03-12 18:55:00
3:15 PM,50.5,48.7,94,29.77,10.0,SE,8.1,-,N/A,,Overcast,140,2012-03-12 19:15:00
3:34 PM,50.4,48.6,94,29.75,10.0,SE,6.9,-,N/A,,Overcast,140,2012-03-12 19:34:00
3:55 PM,50.9,48.7,92,29.74,10.0,SE,6.9,-,N/A,,Overcast,130,2012-03-12 19:55:00
4:14 PM,50.5,48.7,94,29.72,5.0,ESE,6.9,-,N/A,Rain,Light Rain,120,2012-03-12 20:14:00
4:34 PM,50.4,49.1,95,29.72,10.0,SE,8.1,-,N/A,Rain,Light Rain,130,2012-03-12 20:34:00
4:55 PM,50.2,49.1,96,29.71,4.0,SE,6.9,-,N/A,Rain,Rain,140,2012-03-12 20:55:00
5:14 PM,50.2,49.1,96,29.69,5.0,SE,6.9,-,N/A,Rain,Light Rain,130,2012-03-12 21:14:00
5:35 PM,51.3,50.0,95,29.67,10.0,SE,9.2,-,N/A,,Mostly Cloudy,140,2012-03-12 21:35:00
5:55 PM,52.7,50.4,92,29.67,10.0,South,9.2,-,N/A,,Scattered Clouds,170,2012-03-12 21:55:00
6:14 PM,53.1,50.2,90,29.67,10.0,South,6.9,-,N/A,,Clear,190,2012-03-12 22:14:00
6:35 PM,52.7,49.1,88,29.67,10.0,South,8.1,-,N/A,,Clear,190,2012-03-12 22:35:00
6:55 PM,52.0,48.6,88,29.67,10.0,South,6.9,-,N/A,,Scattered Clouds,190,2012-03-12 22:55:00
7:14 PM,52.0,47.8,86,29.67,10.0,SSW,6.9,-,N/A,,Overcast,200,2012-03-12 23:14:00
7:35 PM,51.8,47.3,85,29.68,10.0,SSW,9.2,-,N/A,,Overcast,210,2012-03-12 23:35:00
8:35 PM,47.1,45.0,92,29.68,7.0,SW,12.7,19.6,N/A,Rain,Rain,230,2012-03-13 00:35:00
8:55 PM,46.2,44.6,94,29.69,10.0,SW,9.2,18.4,N/A,,Mostly Cloudy,220,2012-03-13 00:55:00
9:35 PM,45.9,44.6,95,29.70,10.0,SW,11.5,18.4,N/A,,Overcast,220,2012-03-13 01:35:00
9:55 PM,46.2,44.4,93,29.70,10.0,SW,11.5,20.7,N/A,,Mostly Cloudy,220,2012-03-13 01:55:00
10:14 PM,46.2,44.1,92,29.71,10.0,SW,12.7,23.0,N/A,,Scattered Clouds,220,2012-03-13 02:14:00
10:55 PM,45.7,43.0,90,29.71,10.0,SSW,11.5,-,N/A,,Clear,210,2012-03-13 02:55:00
11:15 PM,45.5,42.4,89,29.71,10.0,SW,9.2,-,N/A,,Clear,220,2012-03-13 03:15:00
11:35 PM,45.7,42.3,88,29.72,10.0,SW,11.5,18.4,N/A,,Scattered Clouds,230,2012-03-13 03:35:00
11:54 PM,45.7,42.4,88,29.72,10.0,SW,8.1,19.6,N/A,,Mostly Cloudy,220,2012-03-13 03:54:00